Fargo, ND

3:59 PM CST on December 05, 2019 (GMT -0600)
Hector International

Weather History for KFAR - August, 2019

Change the Weather History Date:

Sunday, August 11, 2019

  Actual Average Record
Temperature  
Mean Temperature 71 °F 70 °F  
Max Temperature 78 °F 82 °F 96 °F (1958)
Min Temperature 64 °F 59 °F 39 °F (1902)
Degree Days  
Heating Degree Days 0 1  
Month to date heating degree days 5 7  
Since 1 June heating degree days 69 96  
Since 1 July heating degree days 11 23  
Cooling Degree Days 6 6  
Month to date cooling degree days 66 72  
Year to date cooling degree days 444 412  
Since 1 June cooling degree days 434 381  
Growing Degree Days 20 (Base 50)    
Moisture  
Dew Point 63 °F    
Average Humidity 78    
Maximum Humidity 100    
Minimum Humidity 56    
Precipitation  
Precipitation 0.13 in 0.08 in 3.33 in (2008)
Month to date precipitation 1.10 0.79  
Year to date precipitation 17.44 14.26  
Snow  
Snow 0.00 in 0.00 in 0.00 in ()
Month to date snowfall 0.0 0.0  
Since 1 June snowfall 0.0 0.0  
Since 1 July snowfall 0.0 0.0  
Snow Depth 0.00 in    
Sea Level Pressure  
Sea Level Pressure 30.00 in    
Wind  
Wind Speed 8 mph (North)    
Max Wind Speed 16 mph    
Max Gust Speed 22 mph    
Visibility 10 miles    
Events      
T = Trace of Precipitation, MM = Missing Value Source: NWS Daily Summary

Daily Weather History Graph

Daily Weather History Graph

Search for Another Location

Airport or City:

Astronomy

Aug. 11, 2019 Rise Set
Actual Time 6:19 AM CDT 8:44 PM CDT
Civil Twilight 5:45 AM CDT 9:18 PM CDT
Nautical Twilight 5:02 AM CDT 10:00 PM CDT
Astronomical Twilight 4:14 AM CDT 10:49 PM CDT
Moon 6:34 PM CDT (8/11) 2:32 AM CDT (8/11)
Length of Visible Light 15h 33m
Length of Day
14h 25m
Waxing Gibbous, 87% of the Moon is Illuminated
Aug 11
Waxing Gibbous
Aug 15
Full
Aug 23
Last Quarter
Aug 30
New
Sep 5
First Quarter

Hourly Weather History & Observations

Time (CDT) Temp. Dew Point Humidity Pressure Visibility Wind Dir Wind Speed Gust Speed Precip Events Conditions
12:53 AM 64.0 °F 62.1 °F 93% 29.96 in 10.0 mi SW 4.6 mph - N/A   Clear
1:51 AM 64.4 °F 62.6 °F 94% 29.98 in 10.0 mi SW 4.6 mph - N/A   Mostly Cloudy
1:53 AM 64.9 °F 63.0 °F 93% 29.97 in 10.0 mi SW 4.6 mph - N/A   Mostly Cloudy
2:17 AM 66.0 °F 64.0 °F 93% 29.98 in 10.0 mi West 6.9 mph - N/A   Overcast
2:53 AM 64.9 °F 63.0 °F 93% 29.98 in 10.0 mi WNW 4.6 mph - N/A   Mostly Cloudy
3:53 AM 66.0 °F 64.0 °F 93% 29.97 in 10.0 mi North 3.5 mph - N/A   Overcast
4:28 AM 64.9 °F 64.0 °F 97% 29.97 in 10.0 mi North 4.6 mph - N/A   Overcast
4:36 AM 64.9 °F 64.0 °F 97% 29.98 in 10.0 mi North 6.9 mph - N/A   Overcast
4:53 AM 66.0 °F 64.9 °F 96% 29.97 in 9.0 mi North 10.4 mph - N/A   Overcast
5:53 AM 66.0 °F 64.9 °F 96% 29.99 in 8.0 mi North 11.5 mph - N/A   Overcast
6:53 AM 66.0 °F 64.9 °F 96% 30.03 in 10.0 mi North 5.8 mph - N/A   Overcast
7:10 AM 66.9 °F 64.9 °F 93% 30.03 in 10.0 mi North 6.9 mph - N/A   Overcast
7:53 AM 66.9 °F 66.0 °F 97% 30.02 in 10.0 mi North 9.2 mph - N/A   Overcast
8:53 AM 68.0 °F 64.9 °F 90% 30.02 in 10.0 mi North 9.2 mph - N/A   Overcast
9:53 AM 66.9 °F 64.0 °F 90% 30.02 in 10.0 mi NNE 10.4 mph 21.9 mph N/A   Overcast
10:38 AM 68.0 °F 63.0 °F 84% 30.02 in 10.0 mi NNE 12.7 mph - N/A   Overcast
10:53 AM 69.1 °F 63.0 °F 81% 30.03 in 10.0 mi NNE 11.5 mph - N/A   Mostly Cloudy
11:01 AM 70.0 °F 64.0 °F 81% 30.03 in 10.0 mi NNE 11.5 mph - N/A   Scattered Clouds
11:53 AM 73.0 °F 64.0 °F 73% 30.03 in 10.0 mi NE 8.1 mph - N/A   Partly Cloudy
12:26 PM 73.9 °F 64.9 °F 73% 30.04 in 10.0 mi North 10.4 mph - N/A   Mostly Cloudy
12:53 PM 75.0 °F 64.0 °F 69% 30.04 in 10.0 mi NE 9.2 mph 18.4 mph N/A   Mostly Cloudy
1:53 PM 75.0 °F 63.0 °F 66% 30.03 in 10.0 mi NNE 8.1 mph - N/A   Overcast
2:15 PM 75.0 °F 63.0 °F 66% 30.03 in 10.0 mi NNE 8.1 mph - N/A   Overcast
2:53 PM 75.0 °F 63.0 °F 66% 30.03 in 10.0 mi NNE 9.2 mph - N/A   Overcast
3:53 PM 78.1 °F 63.0 °F 60% 30.00 in 10.0 mi NE 10.4 mph - N/A   Clear
4:53 PM 78.1 °F 63.0 °F 60% 29.99 in 10.0 mi NNE 8.1 mph - N/A   Clear
5:53 PM 77.0 °F 61.0 °F 58% 29.98 in 10.0 mi NNE 10.4 mph - N/A   Clear
6:53 PM 75.9 °F 59.0 °F 56% 29.96 in 10.0 mi NNE 11.5 mph - N/A   Partly Cloudy
7:53 PM 73.0 °F 59.0 °F 61% 29.97 in 10.0 mi North 5.8 mph - N/A   Clear
8:53 PM 70.0 °F 59.0 °F 68% 29.97 in 10.0 mi NNE 6.9 mph - N/A   Clear
9:53 PM 66.9 °F 57.9 °F 73% 29.98 in 10.0 mi NE 6.9 mph - N/A   Clear
10:53 PM 66.9 °F 55.9 °F 68% 29.97 in 10.0 mi ENE 6.9 mph - N/A   Clear
11:53 PM 66.0 °F 55.9 °F 70% 29.95 in 10.0 mi ENE 6.9 mph - N/A   Clear